This is the latest recevied weather packets stored in our database for station/object AB1AU. If no packets are shown the sender has not sent any weather packets the latest 10 day(s).
| Time | Temp. | Humidity | Pressure | Rain* | Wind** | Luminosity | Snow |
|---|---|---|---|---|---|---|---|
| 1777766503 | 5.56° C | 92% | 1012.8 hPa | 1.27 mm | - | 0 W/m² | - |
| 1777766200 | 5.56° C | 92% | 1012.9 hPa | 0 mm | - | 0 W/m² | - |
| 1777765898 | 5.56° C | 92% | 1012.8 hPa | 0 mm | - | 0 W/m² | - |
| 1777765593 | 5.56° C | 92% | 1012.9 hPa | 1.78 mm | - | 0 W/m² | - |
| 1777765291 | 5.56° C | 92% | 1012.7 hPa | 0 mm | - | 0 W/m² | - |
| 1777764987 | 5.56° C | 92% | 1012.6 hPa | 0 mm | - | 1 W/m² | - |
| 1777764684 | 5.56° C | 92% | 1012.8 hPa | 0 mm | - | 1 W/m² | - |
| 1777764379 | 5.56° C | 92% | 1012.7 hPa | 0 mm | - | 2 W/m² | - |
| 1777764078 | 5.56° C | 91% | 1012.7 hPa | 0 mm | - | 2 W/m² | - |
| 1777763774 | 5.56° C | 91% | 1012.6 hPa | 0 mm | - | 2 W/m² | - |
| 1777763472 | 5.56° C | 91% | 1012.6 hPa | 1.27 mm | - | 3 W/m² | - |
| 1777763170 | 5.56° C | 91% | 1012.6 hPa | 1.27 mm | - | 3 W/m² | - |
| 1777762868 | 6.11° C | 91% | 1012.8 hPa | 0 mm | - | 3 W/m² | - |
| 1777762563 | 6.11° C | 90% | 1012.7 hPa | 0 mm | - | 4 W/m² | - |
| 1777762261 | 6.11° C | 90% | 1012.7 hPa | 0 mm | - | 3 W/m² | - |
| 1777761956 | 6.11° C | 90% | 1012.6 hPa | 1.78 mm | - | 3 W/m² | - |
| 1777761654 | 6.11° C | 90% | 1012.6 hPa | 1.78 mm | - | 3 W/m² | - |
| 1777761351 | 6.11° C | 89% | 1012.6 hPa | 0 mm | - | 3 W/m² | - |
| 1777761050 | 6.67° C | 89% | 1012.6 hPa | 0 mm | - | 3 W/m² | - |
| 1777760746 | 6.67° C | 89% | 1012.7 hPa | 0 mm | - | 4 W/m² | - |
| 1777760443 | 6.67° C | 88% | 1012.6 hPa | 1.27 mm | - | 5 W/m² | - |
| 1777760139 | 6.67° C | 88% | 1012.6 hPa | 1.27 mm | - | 7 W/m² | - |
| 1777759836 | 6.67° C | 88% | 1012.6 hPa | 0 mm | - | 12 W/m² | - |
| 1777759532 | 6.67° C | 88% | 1012.7 hPa | 0 mm | - | 7 W/m² | - |
| 1777759229 | 6.67° C | 88% | 1012.7 hPa | 0 mm | - | 8 W/m² | - |
* Rain latest hour (hover to see other rain measurements)
** Current wind speed in m/s (hover to see current wind gust speed)